Weather reports worldwide

Advertisment
Capo Frasca, Italy (16539): temperature & dewpoint: 18.06.2018 11:00:00 - 24.06.2018 11:00:00 (CEST)Capo Frasca, Italy (16539): wind speed: 18.06.2018 11:00:00 - 24.06.2018 11:00:00 (CEST)Capo Frasca, Italy (16539): wind direction: 18.06.2018 11:00:00 - 24.06.2018 11:00:00 (CEST)Capo Frasca, Italy (16539): reduced air pressure: 18.06.2018 11:00:00 - 24.06.2018 11:00:00 (CEST)Capo Frasca, Italy (16539): visibility: 18.06.2018 11:00:00 - 24.06.2018 11:00:00 (CEST)
Date & Time tt [°C] td [°C] ff [km/h] ff [kn] dd ppp [hPa] vv [km]
24.06.2018 11:00:00 23,8 23,0 13 7 SW 1016,4 25
24.06.2018 10:00:00 - - - - - - -
24.06.2018 09:00:00 - - - - - - -
24.06.2018 08:00:00 22,6 21,6 8 4 E 1015,2 20
24.06.2018 07:00:00 - - - - - - -
24.06.2018 06:00:00 - - - - - - -
24.06.2018 05:00:00 - - - - - - -
24.06.2018 04:00:00 - - - - - - -
24.06.2018 03:00:00 - - - - - - -
24.06.2018 02:00:00 - - - - - - -
24.06.2018 01:00:00 - - - - - - -
24.06.2018 00:00:00 - - - - - - -
23.06.2018 23:00:00 - - - - - - -
23.06.2018 22:00:00 - - - - - - -
23.06.2018 21:00:00 - - - - - - -
23.06.2018 20:00:00 24,4 24,2 22 12 WNW 1014,0 20
23.06.2018 19:00:00 - - - - - - -
23.06.2018 18:00:00 - - - - - - -
23.06.2018 17:00:00 26,2 25,9 24 13 NW 1014,8 25
23.06.2018 16:00:00 - - - - - - -
23.06.2018 15:00:00 - - - - - - -
23.06.2018 14:00:00 25,6 24,0 22 12 NW 1015,0 25
23.06.2018 13:00:00 - - - - - - -
23.06.2018 12:00:00 - - - - - - -
23.06.2018 11:00:00 24,8 22,7 5 3 ENE 1015,0 20
23.06.2018 10:00:00 - - - - - - -
23.06.2018 09:00:00 - - - - - - -
23.06.2018 08:00:00 21,8 21,6 5 3 ENE 1014,5 20
23.06.2018 07:00:00 - - - - - - -
23.06.2018 06:00:00 - - - - - - -
23.06.2018 05:00:00 - - - - - - -
23.06.2018 04:00:00 - - - - - - -
23.06.2018 03:00:00 - - - - - - -
23.06.2018 02:00:00 - - - - - - -
23.06.2018 01:00:00 - - - - - - -
23.06.2018 00:00:00 - - - - - - -
22.06.2018 23:00:00 - - - - - - -
22.06.2018 22:00:00 - - - - - - -
22.06.2018 21:00:00 - - - - - - -
22.06.2018 20:00:00 23,6 23,6 15 8 WSW 1015,0 20
22.06.2018 19:00:00 - - - - - - -
22.06.2018 18:00:00 - - - - - - -
22.06.2018 17:00:00 25,0 24,5 21 11 W 1015,8 20
22.06.2018 16:00:00 - - - - - - -
22.06.2018 15:00:00 - - - - - - -
22.06.2018 14:00:00 24,6 24,6 21 11 WSW 1016,2 20
22.06.2018 13:00:00 - - - - - - -
22.06.2018 12:00:00 - - - - - - -
22.06.2018 11:00:00 24,6 23,4 9 5 WSW 1016,0 20
22.06.2018 10:00:00 - - - - - - -
22.06.2018 09:00:00 - - - - - - -
22.06.2018 08:00:00 21,6 20,9 2 1 W 1016,1 10
22.06.2018 07:00:00 - - - - - - -
22.06.2018 06:00:00 - - - - - - -
22.06.2018 05:00:00 - - - - - - -
22.06.2018 04:00:00 - - - - - - -
22.06.2018 03:00:00 - - - - - - -
22.06.2018 02:00:00 - - - - - - -
22.06.2018 01:00:00 - - - - - - -
22.06.2018 00:00:00 - - - - - - -
21.06.2018 23:00:00 - - - - - - -
21.06.2018 22:00:00 - - - - - - -
21.06.2018 21:00:00 - - - - - - -
21.06.2018 20:00:00 23,4 23,2 9 5 N 1015,8 20
21.06.2018 19:00:00 - - - - - - -
21.06.2018 18:00:00 - - - - - - -
21.06.2018 17:00:00 25,2 23,3 9 5 NNW 1016,8 20
21.06.2018 16:00:00 - - - - - - -
21.06.2018 15:00:00 - - - - - - -
21.06.2018 14:00:00 25,6 24,9 21 11 WNW 1017,6 25
21.06.2018 13:00:00 - - - - - - -
21.06.2018 12:00:00 - - - - - - -
21.06.2018 11:00:00 26,8 21,1 5 3 ENE 1017,7 20
21.06.2018 10:00:00 - - - - - - -
21.06.2018 09:00:00 - - - - - - -
21.06.2018 08:00:00 21,6 20,8 0 0 N 1017,9 25
21.06.2018 07:00:00 - - - - - - -
21.06.2018 06:00:00 - - - - - - -
21.06.2018 05:00:00 - - - - - - -
21.06.2018 04:00:00 - - - - - - -
21.06.2018 03:00:00 - - - - - - -
21.06.2018 02:00:00 - - - - - - -
21.06.2018 01:00:00 - - - - - - -
21.06.2018 00:00:00 - - - - - - -
20.06.2018 23:00:00 - - - - - - -
20.06.2018 22:00:00 - - - - - - -
20.06.2018 21:00:00 - - - - - - -
20.06.2018 20:00:00 24,0 21,9 11 6 N 1018,1 20
20.06.2018 19:00:00 - - - - - - -
20.06.2018 18:00:00 - - - - - - -
20.06.2018 17:00:00 25,0 21,3 8 4 WNW 1018,5 20
20.06.2018 16:00:00 - - - - - - -
20.06.2018 15:00:00 - - - - - - -
20.06.2018 14:00:00 24,4 24,1 15 8 WSW 1018,9 20
20.06.2018 13:00:00 - - - - - - -
20.06.2018 12:00:00 - - - - - - -
20.06.2018 11:00:00 25,2 22,3 5 3 W 1018,5 20
20.06.2018 10:00:00 - - - - - - -
20.06.2018 09:00:00 - - - - - - -
20.06.2018 08:00:00 21,2 20,7 5 3 ESE 1018,1 15
20.06.2018 07:00:00 - - - - - - -
20.06.2018 06:00:00 - - - - - - -
20.06.2018 05:00:00 - - - - - - -
20.06.2018 04:00:00 - - - - - - -
20.06.2018 03:00:00 - - - - - - -
20.06.2018 02:00:00 - - - - - - -
20.06.2018 01:00:00 - - - - - - -
20.06.2018 00:00:00 - - - - - - -
19.06.2018 23:00:00 - - - - - - -
19.06.2018 22:00:00 - - - - - - -
19.06.2018 21:00:00 - - - - - - -
19.06.2018 20:00:00 24,8 22,9 16 9 SSW 1016,2 25
19.06.2018 19:00:00 - - - - - - -
19.06.2018 18:00:00 - - - - - - -
19.06.2018 17:00:00 25,2 24,7 22 12 NW 1016,0 25
19.06.2018 16:00:00 - - - - - - -
19.06.2018 15:00:00 - - - - - - -
19.06.2018 14:00:00 25,6 25,3 24 13 NW 1016,8 25
19.06.2018 13:00:00 - - - - - - -
19.06.2018 12:00:00 - - - - - - -
19.06.2018 11:00:00 24,6 23,0 11 6 NW 1017,6 20
19.06.2018 10:00:00 - - - - - - -
19.06.2018 09:00:00 - - - - - - -
19.06.2018 08:00:00 20,2 19,2 5 3 W 1017,3 12
19.06.2018 07:00:00 - - - - - - -
19.06.2018 06:00:00 - - - - - - -
19.06.2018 05:00:00 - - - - - - -
19.06.2018 04:00:00 - - - - - - -
19.06.2018 03:00:00 - - - - - - -
19.06.2018 02:00:00 - - - - - - -
19.06.2018 01:00:00 - - - - - - -
19.06.2018 00:00:00 - - - - - - -
18.06.2018 23:00:00 - - - - - - -
18.06.2018 22:00:00 - - - - - - -
18.06.2018 21:00:00 - - - - - - -
18.06.2018 20:00:00 21,0 21,0 11 6 W 1015,5 20
18.06.2018 19:00:00 - - - - - - -
18.06.2018 18:00:00 - - - - - - -
18.06.2018 17:00:00 22,0 20,3 21 11 WSW 1016,1 20
18.06.2018 16:00:00 - - - - - - -
18.06.2018 15:00:00 - - - - - - -
18.06.2018 14:00:00 22,4 20,3 18 10 W 1016,7 20
18.06.2018 13:00:00 - - - - - - -
18.06.2018 12:00:00 - - - - - - -
18.06.2018 11:00:00 22,2 20,7 21 11 WNW 1016,3 18

tt = temperature
td = dewpoint
ff = wind speed
dd = wind direction
ppp = reduced air pressure
vv = visibility

Next stations